Wind_Speed
67 68 68 69 69 69 69 68 65 63 62 60 58 56 54 52 50 51 53 53 51 51 50 49 49 48 45 45 47 49 48 47 44 37 32 30 31 33 33 34 35 35 35 35 36 36 36 36 36 37 38 40 40 38 38 37 35 34 34 33 31 29 27 26 27 27 26 25 24 24 23 23 24 25 26 27 28 30 32 34 35 36 35 35 35
67 69 70 71 71 71 72 72 68 64 63 62 61 59 58 54 51 53 54 53 53 54 53 51 50 47 46 47 49 51 51 49 44 37 31 30 32 34 34 34 35 35 35 35 36 36 37 38 38 39 40 41 41 39 38 37 36 34 34 34 33 30 28 27 27 28 28 27 27 26 26 26 26 28 29 29 29 30 32 33 33 33 33 33 35
68 69 71 72 73 73 74 74 70 66 64 64 63 61 60 57 53 54 55 53 51 53 54 53 51 49 49 49 49 53 54 50 44 38 34 34 35 35 36 36 36 35 35 35 36 37 38 39 40 41 42 43 42 40 38 38 37 35 34 35 34 31 28 27 28 28 29 28 29 29 29 29 29 30 30 29 29 30 30 31 31 31 32 34 37
67 68 68 70 73 74 75 74 72 68 66 66 65 62 61 60 56 54 56 55 52 52 54 54 53 52 53 54 54 57 58 51 45 40 38 37 37 37 37 37 36 36 35 36 37 37 38 39 41 43 44 44 44 41 39 38 37 36 35 35 34 31 29 28 28 29 29 29 29 30 30 30 30 30 29 28 29 29 30 31 31 32 33 36 38
67 67 67 68 71 73 74 74 73 71 69 67 67 65 63 62 60 57 57 57 56 55 55 56 55 54 56 58 58 60 60 55 48 44 41 40 39 38 38 37 36 36 36 37 37 38 38 39 42 45 46 46 45 42 40 39 38 37 36 36 35 32 30 29 29 30 30 30 29 29 29 29 29 28 27 28 28 29 30 31 32 33 35 37 39
70 69 69 70 70 70 72 73 73 72 71 70 69 67 65 64 63 61 59 59 59 58 57 58 59 58 58 60 60 60 62 59 53 47 44 42 40 39 38 38 36 36 37 38 38 38 38 39 42 45 47 47 46 42 40 40 39 37 36 36 36 34 30 29 29 30 31 30 29 28 28 27 27 26 26 27 28 28 30 31 33 34 35 37 40
74 72 71 72 72 71 70 71 72 73 74 73 72 70 68 66 65 64 63 62 61 61 60 61 62 61 61 61 62 62 63 61 57 51 45 42 39 38 38 37 36 36 37 38 38 38 38 40 42 46 48 49 46 42 40 40 39 38 36 37 37 35 31 30 30 31 31 30 29 28 27 27 26 26 27 27 28 28 30 31 33 34 36 39 41
76 73 71 71 72 71 70 70 71 73 75 75 74 73 71 69 68 66 65 65 64 64 64 65 65 64 63 63 63 64 63 62 59 53 46 41 39 38 37 36 36 37 37 38 39 39 39 40 43 47 49 49 47 42 40 40 40 38 37 37 37 36 32 30 30 31 31 31 30 29 28 28 28 28 28 29 28 29 30 32 35 37 39 41 43
77 75 72 71 71 70 70 70 70 72 75 75 75 75 75 73 72 69 68 68 68 67 67 68 67 66 65 64 64 64 63 62 59 55 48 41 39 38 37 37 37 38 38 39 40 41 41 41 44 47 49 49 47 42 39 40 41 39 37 37 38 36 33 31 31 31 31 31 31 30 30 30 30 30 31 30 30 30 32 35 38 40 42 43 45
80 77 74 72 71 70 70 70 70 71 73 76 76 76 76 76 75 73 72 71 70 70 70 69 68 65 64 63 62 61 61 60 58 54 49 43 39 39 39 39 39 40 40 41 42 43 43 43 45 49 49 49 47 42 39 41 41 40 38 37 38 37 34 32 32 32 32 32 31 31 32 32 32 32 32 32 32 32 34 37 40 42 44 45 47
83 80 76 73 73 72 70 69 70 70 72 75 76 75 75 75 73 72 72 71 70 69 69 68 66 64 61 59 58 58 58 59 58 55 50 45 43 42 42 41 42 42 43 44 43 45 46 45 47 50 49 48 46 41 39 41 42 40 38 38 39 38 35 33 32 32 32 32 31 32 32 32 32 32 32 33 33 34 36 39 41 43 44 45 47
85 83 79 76 76 74 72 70 70 69 70 72 74 74 73 73 71 68 68 69 69 68 67 65 64 62 60 57 55 55 57 59 60 58 53 50 47 45 43 42 43 45 46 46 45 46 48 47 48 50 49 48 45 40 39 41 43 41 39 39 39 39 36 34 33 33 33 32 32 32 33 32 32 32 33 33 34 36 38 40 41 42 43 44 47
87 86 82 79 78 77 75 74 71 67 63 63 65 68 69 69 69 67 67 68 69 69 67 65 63 62 61 60 58 58 58 61 63 63 60 56 51 47 45 44 44 46 47 47 46 48 49 49 49 49 48 47 44 40 39 42 43 41 39 39 40 39 37 35 34 34 34 33 33 33 33 33 33 33 33 34 35 37 39 39 40 42 43 45 49
88 88 86 82 80 78 76 76 74 68 61 59 63 66 66 67 69 69 68 69 70 70 70 69 66 65 64 64 63 62 62 63 65 66 65 60 54 49 47 46 46 47 47 48 47 48 49 49 49 49 47 45 43 40 39 42 43 41 40 40 40 40 37 36 35 35 34 33 33 34 34 34 34 33 34 35 36 37 38 39 41 43 45 47 50
89 90 88 85 82 80 77 77 77 72 66 64 65 64 62 64 68 70 71 70 70 70 70 70 69 68 67 66 65 64 64 66 67 68 68 62 54 50 48 47 47 48 48 49 48 48 49 49 49 48 45 44 43 40 39 42 43 41 40 40 41 40 38 36 36 35 35 34 34 34 34 34 35 34 35 36 37 38 39 41 43 45 47 49 52
90 91 90 87 84 81 79 78 77 74 70 67 62 58 57 61 65 67 71 73 72 71 72 71 71 70 68 68 67 66 66 67 68 70 69 62 54 50 48 46 47 50 52 51 49 48 49 49 49 47 45 43 43 41 40 43 43 41 40 40 41 40 38 37 37 36 35 35 35 35 35 35 35 35 36 37 38 39 40 42 44 47 48 50 52
90 91 91 88 86 84 82 80 78 77 76 72 63 56 57 63 66 65 68 72 71 71 72 73 73 72 70 69 69 68 69 69 70 70 68 62 56 50 46 44 46 51 54 52 50 50 52 51 50 49 46 43 42 40 40 43 43 41 40 40 41 40 38 37 38 37 36 36 36 36 36 35 35 35 36 37 38 39 40 42 45 47 48 50 52
90 91 91 90 89 87 85 82 80 79 80 77 69 60 61 67 69 67 66 69 69 68 69 70 70 69 68 67 67 68 68 69 69 69 66 62 56 50 46 46 50 53 54 52 51 52 54 53 52 49 44 41 40 40 41 44 44 41 41 41 41 40 38 38 39 38 37 37 37 37 37 36 36 36 36 37 38 38 40 42 44 46 48 50 53
90 91 92 91 91 90 88 85 82 82 82 80 73 66 65 68 68 66 65 66 66 65 65 64 63 63 63 64 64 63 63 64 65 64 62 59 54 48 47 50 53 55 54 53 51 51 51 52 50 45 40 39 39 40 42 44 44 42 42 42 41 39 38 39 39 38 38 38 38 38 38 37 37 37 37 38 38 39 40 42 44 46 49 51 53
90 91 93 93 93 93 92 88 85 84 85 83 77 70 67 66 65 64 64 64 63 61 60 59 59 58 59 61 61 59 58 58 58 57 55 53 49 46 48 50 51 52 53 52 51 50 48 48 46 40 37 38 39 40 42 44 43 43 43 42 40 39 39 40 40 39 39 39 39 39 39 39 38 39 39 38 39 40 41 43 45 47 49 51 54
91 92 93 95 95 95 94 92 89 87 87 86 80 73 67 63 62 62 63 63 61 59 58 57 57 57 56 56 57 56 55 53 53 51 48 47 45 43 45 48 47 48 50 50 49 48 46 45 43 38 37 38 39 40 43 44 43 44 44 43 40 39 39 40 40 40 39 40 40 40 40 40 40 40 40 40 40 41 42 44 46 48 50 52 54
92 93 93 95 97 97 96 95 92 90 90 87 82 76 70 63 60 61 63 62 59 58 57 56 57 58 57 54 53 54 54 51 49 47 44 44 42 40 42 44 43 45 47 47 46 46 45 44 41 38 37 38 38 41 43 44 44 45 45 43 41 40 40 40 41 40 40 40 40 41 41 41 42 42 41 41 42 43 45 46 48 49 51 53 55
91 93 93 94 97 98 97 95 94 93 92 88 83 78 74 66 61 60 62 61 59 58 57 57 58 58 57 54 53 54 54 50 47 45 43 42 40 38 38 40 40 41 43 44 44 44 42 41 38 37 37 38 39 41 43 44 45 46 45 43 41 40 40 41 41 40 40 40 41 41 42 43 43 43 43 43 44 45 46 48 49 51 53 55 57
91 94 94 93 95 97 96 94 93 93 92 90 84 80 76 70 63 60 60 60 59 58 58 58 58 56 54 53 51 50 49 46 43 42 41 40 38 36 36 37 38 38 40 41 42 41 39 38 37 37 37 38 40 42 44 45 46 46 45 43 41 40 41 41 40 40 40 40 41 42 43 44 45 45 45 45 46 47 48 49 51 52 54 56 58
90 93 94 92 92 95 95 93 91 92 92 91 87 83 80 75 68 62 61 60 59 60 60 58 55 51 46 43 42 41 41 41 39 39 39 37 35 34 34 35 36 36 37 38 37 37 38 38 37 37 37 39 41 43 44 45 46 45 43 41 40 41 41 40 40 40 41 41 42 43 44 46 46 46 46 47 47 48 49 50 52 54 55 57 58
88 91 93 92 90 91 93 91 90 90 90 89 87 85 81 77 70 64 62 61 61 61 60 57 53 46 39 35 35 37 38 38 37 37 37 35 34 33 32 32 33 33 33 35 36 36 36 35 34 35 39 41 43 44 44 45 45 43 42 41 41 41 41 40 40 41 41 42 43 44 46 47 48 47 48 48 48 49 50 51 53 55 56 57 58
87 89 91 91 89 89 90 90 87 86 86 86 84 81 77 74 70 66 64 63 63 63 61 58 53 47 41 37 36 36 37 36 35 35 34 33 31 30 29 29 29 30 32 34 35 34 32 31 32 36 42 45 44 44 45 45 44 44 44 44 44 42 41 40 40 41 42 43 44 46 48 49 49 49 49 49 49 50 51 52 54 55 56 57 57
86 87 88 90 88 86 87 87 85 83 83 83 80 76 72 70 68 66 65 65 65 63 60 58 56 52 47 43 39 37 37 36 35 35 34 32 30 27 27 27 28 29 31 32 32 31 30 30 32 36 41 45 45 46 47 46 45 45 46 45 44 42 41 41 41 41 42 43 46 48 50 50 50 50 50 50 50 51 52 53 54 56 56 57 57
83 84 85 86 86 84 84 84 82 81 81 80 76 71 69 68 67 66 66 66 65 63 60 59 58 55 49 44 42 41 41 41 42 40 35 32 29 27 27 27 28 29 29 28 29 32 33 32 32 34 39 44 46 47 46 45 45 45 44 43 43 42 41 42 42 41 42 44 46 49 50 50 50 50 50 50 51 51 52 53 55 56 56 57 58
79 80 80 82 82 81 80 80 80 80 80 77 73 70 69 68 66 65 66 65 65 63 60 59 59 55 49 44 44 45 45 46 46 41 35 32 32 29 28 29 29 30 28 26 28 33 36 36 37 40 42 45 46 45 43 44 46 45 43 43 43 43 43 43 42 41 41 43 46 48 49 49 49 50 50 50 51 52 53 54 55 56 57 59 61
75 76 76 78 79 79 79 80 80 81 80 77 74 72 70 67 64 64 65 66 65 64 62 60 60 56 50 46 47 49 48 46 45 43 38 35 34 31 30 30 29 30 29 28 30 36 39 40 43 45 45 45 46 44 42 43 45 43 40 41 42 43 44 43 41 40 41 43 45 46 47 47 48 49 49 51 52 53 53 54 55 57 59 62 64
69 71 72 74 75 76 77 79 80 80 79 76 76 75 72 68 65 65 66 67 66 65 63 63 62 58 52 49 50 51 49 46 45 45 41 37 34 31 30 31 31 31 31 30 32 37 41 42 44 46 46 46 46 44 41 42 42 39 36 38 42 45 46 44 42 40 41 43 44 45 45 47 48 49 50 52 53 54 54 55 57 60 64 66 68
67 69 70 71 72 74 75 77 78 77 74 74 76 76 73 69 68 69 69 69 68 66 64 63 63 60 54 51 51 50 48 46 46 45 41 37 34 30 29 31 33 33 34 35 36 40 43 44 45 46 46 46 46 43 40 38 38 36 36 40 45 47 47 44 42 41 42 43 44 45 46 47 48 50 52 54 55 55 55 57 61 65 68 70 72
66 68 69 70 71 72 73 74 74 72 70 71 73 73 71 70 70 71 72 71 70 67 64 64 63 59 54 52 51 50 48 47 46 44 41 38 34 31 32 35 36 36 37 39 40 41 43 44 45 45 45 44 42 40 38 37 37 37 40 44 47 47 46 44 43 43 43 44 44 45 46 47 50 53 55 55 55 55 57 61 65 68 71 73 75
65 66 66 67 67 68 68 68 67 66 66 67 68 68 68 69 71 72 74 73 71 68 66 64 61 57 53 51 51 50 48 46 46 45 43 39 35 35 39 41 40 39 39 39 39 40 41 43 43 43 42 41 39 39 40 40 38 39 42 45 46 46 46 46 46 46 44 44 45 47 49 51 54 56 56 55 55 57 61 64 67 69 72 75 76
58 58 59 60 61 62 62 62 61 61 62 63 64 65 67 69 71 73 73 71 69 67 65 63 60 56 53 51 52 51 48 47 46 45 43 40 39 39 40 40 40 40 41 40 40 40 41 43 43 42 41 41 41 43 45 43 40 41 43 45 46 48 48 48 47 46 45 45 47 50 53 57 58 57 56 56 58 61 62 64 67 69 72 73 74
51 51 52 53 55 56 57 57 57 58 60 61 63 65 69 71 72 71 69 67 65 64 62 60 57 55 53 52 54 53 50 48 47 44 41 42 42 41 38 37 38 39 39 41 42 42 43 46 46 43 41 41 43 45 45 43 43 44 46 47 49 51 50 48 47 47 47 48 51 54 56 58 58 57 57 58 60 61 63 64 65 68 69 70 72
46 47 49 50 52 53 54 56 57 58 60 63 66 68 70 70 68 65 62 60 58 57 56 56 55 54 53 54 55 54 51 49 47 43 41 43 44 40 37 37 37 36 38 42 45 45 46 49 49 46 43 43 42 42 43 45 46 47 47 48 50 51 51 49 48 49 50 52 54 56 57 57 58 59 59 59 59 61 62 62 63 66 68 70 72
44 45 47 48 50 51 53 55 57 59 62 64 65 65 63 61 58 55 53 52 51 52 53 54 54 54 54 55 56 55 52 49 46 44 43 43 42 39 38 38 38 38 39 44 47 47 48 50 50 49 46 45 44 45 46 47 47 47 47 49 50 51 52 52 52 53 55 57 58 60 60 60 60 60 58 57 59 60 60 61 63 65 68 71 73
43 44 46 48 49 50 52 54 56 58 59 59 58 56 53 51 49 48 48 48 50 51 53 53 53 54 55 56 57 56 52 48 46 45 43 41 40 40 40 42 42 42 43 46 48 48 49 51 51 51 49 48 48 49 48 47 45 46 48 50 51 51 54 56 57 59 61 62 64 64 62 61 62 60 57 58 60 61 61 63 64 66 69 73 74
41 43 45 47 49 50 52 53 55 55 55 54 52 51 50 48 47 47 48 49 50 51 52 53 53 55 57 58 57 55 52 50 48 47 44 43 43 43 44 45 46 46 45 46 48 50 52 52 51 50 49 48 49 50 49 47 47 48 49 50 51 52 56 59 62 64 65 65 64 62 61 62 63 61 59 61 65 65 63 64 65 68 71 74 76
43 45 46 48 49 50 51 52 52 52 51 50 50 49 49 48 48 48 49 50 51 52 53 54 55 57 58 58 56 55 53 52 51 50 48 46 46 46 46 48 48 47 45 45 47 51 55 54 51 48 47 48 50 52 50 49 49 50 51 51 52 55 58 62 65 67 68 68 66 64 63 64 65 64 65 68 70 68 65 64 65 67 71 75 77
46 47 48 49 49 49 50 51 52 51 50 50 49 50 50 49 50 50 51 51 52 53 55 56 57 58 58 57 56 55 54 52 51 50 49 48 48 48 49 50 49 48 46 47 49 53 56 57 54 50 48 50 52 54 53 53 53 54 54 55 57 59 62 66 68 70 71 72 70 68 66 66 67 69 71 73 71 69 66 65 65 67 71 75 77
45 47 49 49 49 49 49 50 51 51 50 49 49 51 52 52 52 52 53 53 54 55 56 57 57 57 57 56 55 54 52 50 50 50 51 51 50 50 51 52 53 51 51 52 55 57 58 59 58 55 52 52 53 54 55 56 56 56 58 60 62 64 67 71 72 73 73 74 73 71 70 70 71 73 75 74 73 70 68 67 67 69 72 74 75
44 46 48 48 48 48 49 50 50 51 51 51 52 52 53 54 54 54 54 54 55 56 56 56 56 56 56 55 54 53 51 50 50 50 52 53 53 53 53 54 55 55 55 55 57 58 59 60 60 59 58 58 58 58 58 58 57 57 58 60 62 64 67 69 71 72 73 74 75 74 73 74 75 77 77 75 72 69 67 67 68 71 72 73 75
44 46 48 48 48 48 49 50 50 50 51 52 53 53 54 55 56 56 56 56 57 57 56 56 55 55 54 54 53 52 52 52 52 52 53 54 55 56 56 56 56 56 56 56 55 56 56 57 58 59 60 62 62 61 60 59 59 59 60 62 64 65 66 67 69 71 74 76 77 78 78 79 80 80 78 75 70 67 66 68 70 73 74 76 80
44 45 47 49 50 50 51 52 52 52 52 52 53 53 55 57 59 59 59 59 59 58 57 56 56 56 57 57 56 56 55 55 55 56 57 58 59 59 60 59 58 58 58 57 56 56 56 57 59 60 62 63 64 63 61 60 62 63 64 66 67 68 68 68 69 71 73 76 78 81 84 84 84 82 79 76 72 69 69 71 74 77 80 83 88
46 46 46 48 51 53 54 55 55 54 54 54 54 54 55 57 59 60 60 60 60 59 59 58 59 61 62 61 60 59 59 59 59 60 61 63 64 65 65 64 63 63 62 61 60 61 62 63 65 66 66 67 68 68 66 65 66 67 68 68 68 67 67 68 70 72 75 78 80 83 84 85 84 82 81 79 78 77 77 79 81 83 86 89 93
51 50 50 51 53 55 56 57 57 57 57 56 56 55 56 57 59 60 61 62 61 61 61 61 63 64 66 65 64 63 63 64 65 65 66 68 69 70 70 69 68 67 66 65 64 65 66 68 69 70 70 70 71 71 71 71 71 71 71 71 71 70 70 71 72 75 78 80 82 82 83 84 84 85 85 85 85 85 86 86 87 88 90 93 96
56 56 56 56 57 58 59 59 60 60 60 60 59 59 59 59 60 61 63 64 64 63 64 65 66 67 68 68 67 67 68 68 69 70 71 72 73 72 72 71 71 70 69 69 68 69 69 70 71 72 73 73 74 74 74 74 75 75 75 74 74 74 74 75 76 78 80 82 83 84 85 87 88 90 91 92 91 91 91 91 91 92 94 96 98
59 60 60 60 60 61 62 62 62 62 63 63 62 62 61 61 62 63 64 66 67 67 67 67 68 69 70 70 71 71 72 72 73 73 74 76 76 76 74 73 72 72 72 72 72 72 73 74 74 74 74 75 76 77 78 78 78 77 77 78 78 78 79 80 81 82 84 85 86 87 89 90 92 93 94 94 94 94 94 94 95 96 98 100 102
Wind_Direction
223 223 223 223 222 221 222 224 225 224 223 224 224 224 225 226 229 234 239 242 243 244 247 248 251 254 256 257 260 263 264 267 270 274 277 282 288 289 288 288 291 293 296 298 300 303 305 307 308 308 308 311 315 317 316 315 314 311 311 309 302 296 297 300 301 298 292 289 291 295 300 306 310 312 311 308 306 307 310 313 317 322 326 329 332
223 222 222 222 223 223 223 224 225 225 224 225 224 224 225 225 227 231 236 241 243 245 247 248 250 253 254 255 258 261 263 266 270 274 277 282 286 286 285 286 288 291 294 296 298 301 303 304 305 305 306 310 314 315 315 314 313 311 310 309 304 297 295 298 300 298 294 289 288 289 293 299 306 310 310 309 308 310 313 315 319 323 326 329 332
223 222 222 222 223 225 225 225 225 225 225 225 225 225 225 226 227 229 232 237 241 244 246 247 248 248 249 251 254 260 264 268 272 275 278 282 284 283 283 284 286 288 291 293 296 298 300 302 302 302 304 308 312 314 314 313 312 310 308 308 305 298 294 296 298 298 296 291 288 288 290 294 300 306 308 309 311 315 317 319 321 323 325 327 331
222 222 221 222 224 226 227 226 226 225 226 226 225 225 225 227 228 228 229 232 237 241 244 247 247 246 247 249 252 258 266 271 274 276 279 281 282 282 282 282 284 286 289 291 294 297 299 300 300 301 302 305 309 311 312 311 310 309 307 307 305 299 293 294 296 297 297 294 291 289 290 292 297 301 305 308 313 316 318 319 320 322 324 327 330
222 222 221 222 224 227 228 228 226 225 226 227 226 225 225 227 229 230 230 230 233 237 241 245 246 246 248 251 254 260 266 271 273 276 278 279 280 280 280 281 283 285 287 290 292 296 298 299 299 300 301 302 306 309 309 309 309 308 307 307 306 300 293 292 295 297 297 297 295 292 291 292 295 298 303 308 312 316 317 318 319 320 324 327 329
226 226 226 225 226 228 229 229 227 226 226 227 227 227 226 227 229 230 231 232 232 234 238 243 246 247 249 253 257 260 265 270 272 275 276 277 278 278 279 281 283 284 286 289 292 296 299 299 298 300 302 302 304 306 307 307 307 307 306 306 306 301 294 291 293 295 297 297 296 295 293 292 293 296 301 306 310 313 315 316 317 320 323 326 328
229 229 229 228 228 229 229 229 229 228 227 227 227 227 228 229 230 231 232 234 234 235 237 241 246 248 250 254 257 260 264 268 271 273 274 274 274 275 279 282 282 283 286 289 292 296 300 300 299 300 302 302 302 305 306 306 305 306 305 306 306 301 293 289 290 294 296 296 296 295 294 292 291 294 298 302 306 309 312 315 317 320 323 326 327
230 229 229 229 230 230 229 229 230 229 229 229 229 228 229 230 231 231 232 235 237 238 240 243 246 250 252 255 258 261 264 267 270 271 272 272 271 274 279 282 281 283 286 290 293 296 300 302 300 301 302 301 302 304 306 305 304 304 305 305 305 300 292 287 288 292 294 295 294 294 293 292 291 292 295 299 302 304 308 312 316 320 323 326 327
231 229 227 229 231 230 229 229 230 230 229 229 230 231 231 231 232 233 234 236 239 241 243 245 247 250 253 256 259 262 264 266 268 269 270 270 269 272 279 282 282 282 287 291 293 296 299 302 302 301 300 300 301 303 305 304 303 303 304 305 304 300 292 286 287 290 293 294 293 293 293 292 292 291 293 295 298 300 304 309 313 317 321 324 326
231 229 227 227 230 230 229 228 230 230 228 229 230 232 233 234 234 235 237 239 241 243 244 245 247 249 253 257 259 262 263 265 266 268 269 269 269 273 279 283 281 282 287 293 296 297 299 301 302 301 299 299 300 303 304 304 302 302 303 304 304 299 291 285 286 289 292 293 293 293 293 293 293 292 292 293 296 297 300 305 309 312 318 322 324
230 230 227 226 228 229 229 229 230 230 228 228 230 232 234 235 236 238 240 240 240 242 243 244 246 249 252 256 258 260 263 264 266 267 270 271 273 277 281 282 280 281 288 295 297 298 299 301 302 300 298 297 299 302 304 303 301 301 302 304 303 298 290 285 285 288 291 292 292 293 294 294 295 295 293 294 296 297 300 303 306 310 315 321 323
228 228 227 226 226 228 230 231 231 231 230 231 232 234 235 236 237 239 240 239 239 240 241 243 246 249 252 254 257 260 263 266 268 270 271 273 275 280 283 283 282 284 290 296 298 298 299 300 301 299 297 297 298 301 303 302 300 300 302 303 302 297 289 284 284 287 289 290 291 293 294 295 296 297 296 297 298 300 301 303 306 309 314 319 322
225 226 226 225 225 226 228 230 231 231 233 235 237 239 240 240 239 239 238 237 237 237 238 242 246 248 250 252 254 258 261 265 269 272 273 275 277 282 285 286 287 288 292 296 297 297 298 299 300 298 297 297 298 301 303 301 298 299 301 303 301 295 288 283 283 286 288 289 291 292 293 295 297 298 299 300 301 302 303 305 307 311 315 318 322
223 224 224 224 224 224 225 228 228 226 228 233 236 238 242 243 241 240 239 238 238 238 238 241 245 247 250 252 254 257 260 263 267 270 273 275 278 282 286 288 289 291 293 295 296 296 297 299 299 297 297 298 299 302 303 299 297 298 300 302 300 294 287 282 282 285 287 288 290 292 293 294 297 300 302 303 304 304 305 307 309 312 316 320 322
222 223 223 223 223 223 223 225 225 223 224 228 228 229 236 242 243 241 241 240 239 240 241 243 246 248 250 251 253 255 258 261 265 268 271 274 278 282 285 288 291 293 292 292 292 294 295 297 297 296 298 300 300 302 302 297 295 297 299 301 298 292 285 281 281 284 285 287 289 291 292 294 298 302 304 305 306 306 306 307 310 315 318 320 322
220 221 222 221 222 222 221 223 223 222 224 227 224 222 228 239 243 243 241 240 240 241 243 245 247 248 250 251 251 253 255 258 261 265 269 274 278 281 284 289 293 292 289 287 288 290 292 294 295 296 299 300 300 301 300 295 294 296 298 300 297 290 284 280 280 282 284 286 288 289 291 294 298 303 306 308 308 308 308 310 313 316 319 320 321
218 219 220 220 220 220 220 220 220 219 223 227 227 224 226 235 244 247 243 240 241 241 242 244 245 246 248 250 251 252 254 256 258 262 267 272 276 279 282 285 285 282 280 282 286 288 289 290 292 294 297 297 298 300 298 293 293 295 297 298 295 288 282 279 279 281 283 284 286 289 291 294 299 304 308 310 311 312 312 313 315 317 318 319 320
217 218 219 219 219 219 219 218 218 219 223 227 230 231 230 235 244 248 243 239 240 240 241 242 243 245 247 249 251 253 255 256 258 261 265 269 272 275 276 275 273 271 273 277 282 284 286 287 288 290 292 294 296 298 295 291 291 294 297 297 293 287 280 277 277 279 281 282 285 288 290 294 299 304 308 311 313 315 315 315 315 316 317 318 320
217 217 218 218 218 218 218 217 217 220 224 227 229 233 233 236 242 244 240 237 239 240 241 242 244 246 249 251 254 256 258 258 260 262 265 268 270 271 270 269 269 271 273 276 278 280 282 284 285 286 289 292 295 296 292 289 291 294 296 295 292 285 278 275 276 278 279 281 283 287 290 294 298 302 306 310 313 314 315 314 314 315 316 318 320
216 216 217 217 218 218 217 217 218 220 223 225 227 231 233 236 238 238 237 237 239 240 242 243 245 248 251 254 256 257 259 260 262 264 266 267 267 267 267 268 269 270 272 274 275 276 279 281 282 284 288 292 294 292 289 288 290 293 293 293 290 283 276 274 274 276 278 280 282 286 289 293 296 300 304 308 310 312 312 312 313 314 316 318 320
215 216 216 217 218 218 218 217 217 219 222 224 225 228 231 234 235 235 236 238 239 240 242 244 245 247 253 257 257 257 258 261 262 264 265 265 265 265 266 268 268 268 269 270 271 273 275 277 280 285 289 291 292 290 287 287 289 291 292 292 289 281 274 272 273 275 278 280 282 285 288 292 295 298 302 305 307 308 309 310 312 314 316 318 320
215 216 216 216 218 219 218 217 217 219 222 223 223 225 228 231 234 235 235 236 238 239 241 243 245 247 251 256 258 257 257 258 261 263 263 263 263 262 264 265 264 264 266 267 267 270 273 275 280 284 288 290 290 287 284 286 288 289 290 291 286 279 274 272 272 275 278 280 283 285 288 291 294 297 300 303 305 306 307 309 311 314 316 318 320
214 215 217 216 217 219 219 218 217 219 221 222 222 223 226 230 234 234 233 234 236 238 239 241 243 245 249 256 260 258 256 257 260 263 262 261 261 260 260 261 258 258 262 266 268 271 273 277 281 284 287 289 287 284 283 285 287 288 289 288 284 278 274 272 272 275 279 282 284 286 288 291 293 296 299 301 302 303 305 308 310 313 315 318 320
213 214 216 217 217 218 220 219 217 218 220 221 221 223 226 230 234 233 231 231 233 235 237 239 242 246 253 258 259 255 254 255 259 260 259 258 258 256 255 255 254 253 257 263 268 272 275 279 282 285 287 286 283 281 282 284 286 286 287 286 283 278 274 273 273 276 280 283 286 288 289 291 293 295 298 300 300 302 304 306 309 313 315 318 319
212 213 216 217 217 217 220 220 217 218 219 220 221 223 226 229 233 231 228 229 231 233 235 238 242 248 254 256 253 250 251 253 254 254 254 254 254 254 253 254 255 257 259 264 270 274 276 279 283 286 285 282 280 280 282 284 284 284 285 285 282 278 275 274 275 277 281 284 287 290 291 293 294 297 298 299 300 301 304 306 310 313 315 317 318
211 212 215 217 217 217 219 220 218 218 219 220 221 222 224 228 230 229 226 228 231 233 235 237 240 245 250 253 252 251 250 250 249 249 251 253 254 255 256 257 260 264 268 271 272 274 277 282 286 285 281 279 280 281 282 282 281 281 282 284 282 278 276 276 276 277 281 284 288 291 292 293 296 298 299 299 300 302 304 307 310 313 315 316 317
210 211 213 215 217 217 218 220 219 218 219 220 221 222 224 227 229 227 225 228 230 232 234 236 237 240 247 254 256 253 250 250 251 252 255 257 258 259 261 262 265 269 272 272 272 273 276 279 276 270 271 276 280 280 280 279 277 276 279 282 282 280 278 278 277 278 281 284 287 289 291 293 296 298 298 298 300 302 305 308 310 312 313 314 316
209 210 211 214 216 216 217 219 220 219 220 221 221 222 224 226 226 225 226 228 230 231 233 234 235 240 248 254 255 252 248 249 252 254 257 259 262 266 267 265 265 266 267 269 274 276 276 272 265 261 267 274 276 277 279 278 276 275 277 280 282 282 281 280 279 280 282 284 286 288 290 293 296 297 297 299 301 303 306 308 309 310 312 313 316
207 208 209 212 214 215 216 218 220 220 221 221 220 221 222 222 221 223 226 228 230 231 232 234 236 242 249 252 251 248 246 247 248 251 254 259 263 269 272 268 265 266 267 271 277 280 278 276 271 266 265 266 269 275 279 279 277 276 275 277 282 285 284 283 282 283 284 285 285 287 290 293 295 296 297 299 302 304 306 307 308 309 311 312 315
205 207 208 210 212 213 214 216 218 220 221 221 219 218 219 218 220 224 227 228 230 231 232 234 238 244 249 250 247 246 247 249 249 250 254 259 259 263 271 273 271 270 271 273 275 275 276 276 274 270 266 266 269 275 278 277 278 276 273 276 283 286 286 286 286 286 286 286 285 287 291 293 294 296 298 300 302 304 305 306 307 309 310 312 313
203 205 206 208 210 211 212 213 216 218 220 219 218 216 216 218 221 225 228 230 232 232 232 233 238 246 250 249 245 245 248 250 250 249 252 255 254 257 268 274 272 270 269 267 267 269 272 273 271 270 270 270 271 273 274 277 280 278 275 278 285 288 288 288 289 288 287 286 286 289 291 293 294 297 299 300 302 304 305 306 307 309 310 311 312
202 203 205 207 209 211 211 213 215 218 219 219 217 216 217 220 224 227 229 231 233 234 233 233 239 247 251 247 244 245 248 248 247 246 249 251 251 254 262 267 266 264 263 261 261 264 269 271 270 270 270 270 270 272 276 279 280 278 276 281 287 289 289 289 290 289 288 286 287 289 291 293 295 298 300 301 302 304 305 306 308 309 310 310 312
200 202 204 206 208 210 211 213 216 218 219 219 219 220 222 225 227 227 228 230 233 236 235 236 241 247 248 245 244 245 245 244 243 244 246 247 248 252 260 263 262 261 261 260 260 263 269 272 271 271 271 270 270 271 274 276 275 273 274 280 286 288 289 289 290 288 287 287 289 290 292 295 298 300 301 302 303 304 305 307 308 309 310 311 312
198 200 202 205 207 209 211 214 216 218 219 219 220 222 225 227 227 226 228 230 233 235 236 238 242 245 245 243 243 242 241 240 241 243 245 245 245 248 252 252 253 256 258 258 261 267 273 274 274 274 273 271 269 267 269 272 272 270 271 277 283 287 289 289 289 288 288 290 292 293 295 298 300 302 303 303 304 305 307 308 309 310 311 312 313
197 199 202 204 207 209 212 214 216 217 218 219 220 222 224 225 226 227 229 231 233 235 237 239 241 241 241 241 241 238 236 236 237 240 242 242 242 244 245 244 245 250 254 258 263 269 273 275 276 276 273 270 266 262 264 269 269 267 270 275 280 286 290 289 289 290 292 293 294 296 298 300 302 303 304 304 305 306 307 308 309 309 310 312 313
198 200 202 204 207 209 211 213 214 216 217 218 219 219 221 224 226 228 230 232 234 236 237 237 237 237 237 237 236 234 233 232 234 237 240 240 240 242 245 246 246 248 253 260 266 270 273 275 277 276 273 268 262 259 263 268 266 266 271 276 280 286 290 290 289 292 293 293 295 297 299 301 303 304 304 304 305 305 306 307 307 308 310 311 312
199 200 202 204 206 208 210 211 212 214 216 217 217 218 220 224 226 229 231 233 234 235 236 236 235 236 235 234 233 232 231 232 234 237 239 240 240 241 244 248 249 250 255 261 265 268 269 271 273 273 270 266 261 260 264 266 264 266 274 278 279 284 288 288 288 290 291 293 295 298 299 300 302 303 303 303 302 303 304 305 307 309 311 312 313
199 201 203 204 206 208 209 210 211 212 213 215 216 219 221 225 228 230 233 234 235 236 237 237 237 236 235 233 232 232 232 232 233 235 237 239 241 243 246 250 252 254 258 261 262 263 265 268 270 268 265 262 262 263 264 263 263 268 275 276 276 281 285 286 286 288 291 293 295 296 297 298 300 301 301 300 301 303 305 306 309 311 313 313 313
200 202 203 205 206 208 209 209 211 212 214 217 219 222 225 228 231 233 234 234 234 234 235 236 236 235 234 233 233 233 232 231 233 235 236 239 243 246 249 250 251 251 254 257 259 262 265 266 267 266 262 259 260 262 262 263 266 271 274 274 274 278 281 283 285 287 290 292 293 294 295 296 298 299 300 299 301 305 306 307 309 312 312 312 312
200 201 203 204 206 207 208 210 212 215 218 221 224 227 229 231 231 231 231 230 230 231 232 233 234 233 233 232 232 232 232 232 234 236 237 238 242 245 246 247 248 248 250 254 259 263 264 262 263 264 263 258 255 257 260 263 266 268 269 270 272 275 278 280 283 286 288 290 293 294 295 296 298 300 299 299 302 306 306 306 307 308 309 309 310
198 201 202 204 205 207 208 211 213 216 220 223 225 227 227 228 228 227 227 227 228 229 231 232 232 232 232 231 230 230 231 231 232 234 235 237 239 242 243 245 247 248 251 255 259 261 260 258 259 261 260 255 253 256 260 262 263 264 264 265 267 270 274 277 281 284 286 289 292 293 293 294 296 297 296 297 301 304 305 305 304 303 303 305 307
197 199 201 203 205 207 209 211 214 217 219 222 224 226 226 226 226 226 226 227 227 228 229 230 231 231 231 230 229 229 230 230 230 232 235 238 241 243 245 245 247 249 252 255 258 259 257 255 255 256 256 255 256 259 262 263 263 263 263 263 263 265 270 275 279 282 285 287 289 290 290 292 294 294 294 297 300 303 303 303 302 300 299 301 303
199 200 201 202 205 207 210 212 213 215 217 220 222 224 225 226 226 226 226 227 227 228 229 230 231 231 231 230 228 227 228 230 231 232 235 238 241 246 248 248 248 249 251 253 257 259 258 255 254 253 254 256 259 261 262 262 263 263 264 264 264 266 269 273 277 280 283 285 287 289 291 292 293 293 294 297 300 303 303 302 300 298 297 297 300
202 203 204 204 204 207 210 213 214 215 216 218 220 222 222 223 223 225 226 227 228 229 230 231 232 232 231 230 228 226 227 230 233 234 236 238 241 246 249 250 250 251 252 255 259 260 258 254 253 252 253 255 258 259 261 261 261 262 264 265 266 267 270 273 277 279 281 283 286 290 292 292 291 292 294 298 301 303 303 301 299 296 296 297 298
206 207 207 206 206 208 211 213 215 217 218 219 220 221 221 221 222 223 225 227 229 230 231 231 231 231 230 228 226 225 227 230 233 235 237 238 241 244 248 250 251 252 255 258 261 262 260 256 254 253 252 253 256 258 259 260 260 261 262 264 267 269 272 276 279 280 282 284 288 290 291 290 290 293 296 299 301 301 300 299 297 296 295 296 296
209 211 210 209 208 210 212 213 214 216 219 220 221 222 223 223 223 223 225 227 229 230 231 230 228 227 226 224 224 226 229 232 234 235 238 240 242 245 248 250 252 254 257 259 260 260 260 259 259 257 255 255 256 258 258 258 258 259 260 263 266 269 271 275 278 280 283 286 290 291 290 291 292 295 298 300 300 299 298 297 296 294 294 294 294
210 213 214 214 213 212 213 214 214 216 218 220 221 222 223 225 225 225 225 227 228 229 229 228 226 223 223 223 225 228 231 234 236 237 239 241 244 246 248 250 252 254 256 256 256 256 257 260 262 262 261 261 260 259 259 258 258 259 261 263 267 269 272 275 277 280 283 286 289 290 291 292 294 296 298 299 299 297 296 295 294 293 293 294 296
210 212 214 216 216 216 217 217 217 217 219 221 222 222 224 226 227 228 228 229 229 229 229 228 226 224 223 224 226 230 232 235 237 239 240 242 244 246 247 249 250 252 253 253 252 252 254 258 261 264 266 265 263 260 260 260 261 262 264 266 268 270 272 274 276 278 281 284 286 287 289 291 293 295 297 297 297 296 295 294 293 294 295 296 297
213 214 214 216 218 220 222 221 221 220 221 222 223 224 225 227 228 229 230 231 231 231 230 230 229 227 225 226 229 232 234 236 237 239 240 242 243 245 246 248 249 250 251 252 252 252 253 256 259 262 265 266 263 261 261 263 264 265 266 267 267 268 270 271 273 275 278 282 284 286 287 289 292 293 295 295 296 295 295 295 295 296 296 297 298
217 218 218 219 220 222 225 226 225 225 225 225 225 226 227 229 231 231 231 232 233 233 232 232 231 230 229 230 232 234 236 237 238 240 241 241 242 243 245 247 249 250 250 251 252 253 255 258 260 262 265 266 264 262 262 264 264 265 266 267 267 268 269 270 272 274 278 281 283 285 287 289 291 292 293 294 294 294 294 295 295 296 296 296 297
221 221 222 223 224 224 226 228 229 230 230 230 230 230 231 233 234 235 234 234 234 235 235 234 234 233 234 235 235 236 237 238 240 241 241 241 242 243 245 246 248 249 249 250 251 253 255 258 260 263 265 265 264 262 262 263 264 265 266 266 267 268 270 272 274 277 279 281 283 285 287 288 290 291 292 292 293 293 294 294 294 294 295 296 296
Height
10645 10649 10653 10657 10661 10665 10669 10673 10678 10682 10687 10690 10693 10696 10698 10702 10706 10707 10708 10711 10713 10715 10717 10719 10721 10723 10727 10729 10730 10731 10732 10734 10736 10738 10740 10741 10742 10742 10742 10742 10741 10741 10740 10740 10739 10738 10737 10737 10737 10736 10734 10732 10730 10727 10725 10723 10721 10719 10717 10716 10715 10714 10713 10711 10709 10708 10706 10705 10704 10703 10702 10701 10700 10698 10696 10694 10692 10690 10689 10686 10684 10682 10680 10678 10675
10639 10642 10646 10650 10655 10659 10663 10667 10672 10678 10682 10685 10688 10691 10694 10698 10703 10704 10704 10706 10708 10710 10712 10715 10717 10720 10722 10724 10725 10726 10727 10729 10732 10735 10737 10738 10739 10739 10739 10739 10739 10738 10738 10737 10736 10735 10734 10733 10732 10732 10730 10729 10727 10724 10722 10720 10718 10716 10714 10713 10711 10711 10710 10708 10706 10705 10703 10702 10701 10700 10700 10699 10697 10696 10694 10692 10690 10688 10686 10684 10682 10680 10678 10675 10672
10632 10635 10639 10644 10649 10652 10655 10661 10667 10673 10677 10681 10684 10687 10689 10694 10698 10700 10701 10702 10704 10705 10707 10710 10713 10716 10717 10719 10720 10720 10721 10724 10727 10731 10733 10735 10735 10735 10735 10735 10736 10736 10735 10734 10733 10732 10730 10729 10728 10727 10726 10725 10723 10721 10719 10716 10715 10713 10712 10710 10709 10707 10706 10705 10703 10702 10701 10699 10698 10698 10697 10696 10694 10693 10691 10689 10687 10685 10683 10681 10679 10677 10675 10672 10669
10625 10629 10634 10638 10642 10645 10649 10655 10662 10668 10672 10676 10679 10683 10685 10689 10693 10696 10697 10699 10700 10701 10701 10704 10707 10711 10712 10713 10714 10714 10715 10719 10723 10726 10729 10730 10731 10732 10732 10732 10732 10733 10732 10731 10730 10729 10727 10726 10724 10723 10722 10721 10720 10718 10715 10713 10711 10710 10709 10707 10706 10704 10703 10702 10700 10699 10698 10697 10696 10695 10694 10692 10691 10690 10688 10686 10683 10682 10680 10677 10676 10674 10671 10669 10666
10619 10623 10628 10632 10635 10639 10643 10649 10656 10662 10667 10671 10675 10678 10681 10684 10688 10691 10693 10696 10697 10697 10698 10698 10701 10704 10705 10707 10709 10710 10710 10714 10718 10721 10724 10726 10727 10727 10728 10728 10729 10729 10729 10728 10727 10726 10725 10723 10721 10720 10718 10717 10716 10714 10712 10709 10708 10706 10705 10704 10702 10701 10700 10699 10697 10696 10695 10694 10692 10692 10691 10689 10688 10686 10685 10682 10680 10679 10676 10674 10672 10670 10668 10665 10663
10614 10618 10622 10625 10629 10634 10638 10644 10651 10656 10661 10665 10669 10672 10676 10679 10682 10686 10689 10691 10693 10694 10695 10694 10695 10699 10701 10701 10704 10706 10707 10709 10713 10717 10719 10722 10723 10723 10724 10724 10725 10726 10725 10725 10724 10723 10721 10720 10718 10716 10714 10713 10712 10710 10708 10705 10704 10703 10702 10700 10699 10698 10697 10695 10694 10692 10691 10690 10689 10688 10687 10686 10685 10683 10681 10679 10678 10676 10674 10672 10670 10668 10665 10663 10660
10608 10612 10617 10620 10625 10630 10635 10640 10646 10651 10654 10658 10662 10667 10671 10674 10677 10680 10684 10687 10689 10691 10691 10690 10691 10693 10696 10698 10700 10702 10703 10705 10709 10712 10715 10717 10718 10719 10720 10721 10722 10722 10722 10721 10720 10719 10718 10717 10715 10713 10711 10709 10708 10706 10704 10701 10700 10699 10698 10697 10695 10694 10693 10692 10690 10689 10688 10687 10686 10685 10684 10683 10681 10680 10678 10677 10675 10673 10671 10669 10667 10665 10663 10660 10657
10603 10608 10612 10616 10620 10625 10630 10635 10640 10644 10648 10652 10656 10661 10665 10668 10671 10675 10680 10682 10685 10687 10688 10687 10688 10689 10691 10694 10696 10697 10699 10702 10704 10707 10710 10712 10714 10715 10716 10717 10718 10719 10719 10718 10717 10716 10715 10713 10711 10710 10707 10705 10704 10702 10699 10697 10695 10695 10694 10693 10692 10690 10689 10688 10687 10686 10685 10684 10683 10682 10681 10679 10678 10677 10675 10674 10672 10670 10668 10666 10664 10662 10659 10657 10653
10597 10602 10607 10612 10616 10620 10624 10628 10633 10637 10642 10647 10651 10655 10658 10662 10665 10670 10674 10678 10680 10683 10684 10685 10686 10687 10688 10690 10691 10693 10695 10697 10698 10701 10705 10708 10711 10712 10713 10714 10714 10715 10715 10714 10713 10712 10711 10709 10708 10706 10703 10701 10699 10698 10695 10692 10691 10690 10690 10689 10688 10686 10686 10684 10683 10682 10681 10681 10680 10679 10677 10676 10674 10673 10672 10670 10669 10667 10665 10663 10661 10658 10656 10653 10649
10590 10596 10602 10608 10611 10614 10618 10622 10626 10630 10636 10640 10644 10648 10652 10655 10660 10664 10669 10673 10676 10679 10681 10682 10684 10685 10685 10686 10687 10689 10690 10691 10692 10695 10699 10703 10707 10708 10709 10711 10711 10711 10711 10710 10709 10708 10706 10705 10704 10701 10699 10697 10695 10694 10692 10688 10686 10686 10686 10685 10684 10682 10681 10680 10679 10678 10678 10677 10676 10675 10673 10672 10671 10670 10668 10667 10665 10663 10661 10659 10657 10655 10652 10650 10646
10582 10589 10596 10602 10605 10607 10611 10616 10620 10625 10630 10634 10637 10642 10645 10649 10655 10659 10663 10667 10671 10674 10677 10679 10681 10681 10682 10683 10684 10684 10685 10685 10687 10690 10694 10698 10701 10704 10705 10707 10707 10707 10706 10706 10705 10703 10702 10701 10699 10697 10695 10693 10691 10690 10688 10685 10682 10681 10681 10681 10680 10678 10677 10676 10675 10674 10674 10673 10672 10671 10670 10668 10667 10666 10664 10663 10661 10659 10657 10655 10653 10651 10649 10646 10643
10572 10580 10588 10594 10598 10602 10607 10612 10615 10619 10624 10628 10632 10637 10640 10645 10650 10654 10658 10661 10664 10667 10671 10674 10676 10677 10679 10680 10680 10680 10680 10679 10680 10684 10688 10692 10696 10699 10701 10702 10703 10702 10702 10701 10700 10698 10697 10696 10695 10693 10691 10689 10687 10686 10684 10681 10678 10677 10677 10676 10675 10674 10673 10672 10671 10670 10669 10669 10669 10667 10666 10664 10663 10662 10660 10659 10657 10655 10653 10651 10649 10648 10646 10643 10640
10563 10570 10578 10584 10589 10595 10601 10606 10611 10616 10621 10625 10629 10632 10636 10641 10646 10650 10652 10654 10656 10660 10664 10667 10669 10672 10674 10675 10676 10676 10676 10675 10675 10677 10681 10686 10691 10695 10697 10698 10698 10697 10697 10696 10695 10693 10692 10692 10691 10689 10686 10684 10683 10682 10680 10677 10674 10673 10673 10672 10671 10670 10669 10668 10667 10666 10665 10665 10664 10664 10662 10660 10660 10658 10657 10655 10653 10651 10649 10647 10645 10643 10641 10639 10636
10553 10560 10568 10575 10581 10587 10594 10599 10604 10609 10614 10617 10621 10625 10629 10634 10639 10643 10646 10647 10650 10653 10656 10659 10662 10665 10668 10670 10671 10672 10673 10673 10673 10673 10675 10680 10686 10690 10692 10693 10693 10692 10691 10690 10690 10688 10687 10686 10686 10684 10682 10680 10678 10677 10676 10673 10670 10669 10669 10668 10667 10666 10665 10664 10663 10662 10661 10661 10661 10660 10658 10656 10655 10655 10653 10651 10649 10647 10645 10643 10641 10639 10636 10634 10631
10545 10551 10558 10566 10573 10580 10587 10592 10596 10602 10606 10608 10610 10614 10621 10627 10631 10635 10639 10642 10645 10648 10651 10654 10657 10659 10661 10664 10665 10667 10668 10669 10669 10669 10670 10675 10681 10686 10688 10689 10688 10687 10685 10684 10683 10682 10681 10681 10680 10679 10677 10675 10673 10673 10671 10668 10666 10665 10665 10664 10663 10662 10661 10660 10659 10658 10657 10657 10656 10656 10654 10653 10651 10650 10649 10647 10645 10643 10641 10639 10636 10634 10631 10629 10626
10535 10542 10550 10559 10566 10572 10579 10584 10590 10596 10600 10603 10605 10606 10612 10620 10624 10627 10631 10635 10638 10642 10646 10649 10651 10653 10655 10657 10660 10662 10664 10664 10665 10665 10666 10670 10676 10681 10683 10684 10684 10681 10678 10676 10677 10677 10676 10675 10674 10673 10672 10671 10669 10668 10666 10664 10662 10661 10661 10660 10659 10658 10657 10657 10655 10654 10653 10653 10652 10651 10650 10649 10647 10646 10644 10642 10640 10638 10637 10635 10632 10629 10627 10624 10621
10526 10534 10542 10551 10558 10564 10570 10576 10582 10587 10591 10597 10602 10603 10606 10613 10617 10619 10624 10627 10631 10635 10638 10640 10643 10646 10649 10652 10654 10657 10658 10659 10661 10662 10663 10666 10671 10676 10679 10681 10680 10676 10671 10671 10672 10672 10670 10670 10668 10667 10666 10665 10664 10663 10661 10659 10657 10657 10657 10656 10655 10654 10653 10653 10651 10650 10650 10649 10648 10647 10646 10645 10644 10642 10640 10638 10636 10635 10633 10631 10628 10625 10622 10619 10616
10518 10526 10534 10543 10549 10555 10562 10568 10574 10579 10583 10590 10597 10601 10603 10606 10610 10613 10617 10620 10624 10628 10630 10633 10636 10640 10643 10646 10648 10651 10653 10654 10656 10657 10659 10662 10666 10670 10673 10674 10672 10668 10666 10667 10668 10668 10665 10664 10663 10661 10661 10660 10659 10658 10656 10654 10652 10652 10653 10652 10651 10650 10649 10648 10647 10646 10646 10644 10644 10643 10642 10641 10639 10638 10636 10635 10633 10631 10629 10626 10624 10621 10617 10615 10612
10510 10519 10527 10534 10540 10546 10553 10560 10566 10571 10576 10582 10588 10593 10597 10600 10603 10607 10610 10614 10618 10621 10624 10628 10631 10635 10638 10640 10643 10645 10647 10649 10650 10652 10654 10657 10659 10663 10666 10665 10662 10660 10660 10661 10663 10662 10660 10657 10656 10656 10656 10655 10654 10652 10650 10648 10647 10647 10647 10647 10646 10646 10645 10643 10642 10642 10641 10640 10639 10638 10637 10636 10635 10634 10632 10631 10629 10627 10625 10622 10619 10617 10613 10610 10607
10502 10510 10518 10524 10530 10536 10543 10551 10558 10563 10568 10574 10579 10584 10588 10593 10597 10601 10605 10608 10612 10615 10619 10623 10626 10629 10632 10634 10637 10640 10642 10643 10645 10646 10648 10650 10652 10656 10657 10657 10655 10654 10653 10654 10655 10655 10653 10652 10651 10651 10650 10649 10648 10646 10644 10642 10642 10641 10641 10641 10641 10641 10640 10639 10638 10637 10637 10636 10635 10634 10633 10632 10631 10629 10628 10627 10625 10623 10620 10617 10615 10612 10609 10606 10603
10493 10500 10507 10514 10520 10527 10534 10542 10549 10554 10559 10565 10571 10577 10582 10587 10591 10596 10599 10602 10606 10610 10614 10618 10621 10624 10627 10629 10631 10633 10635 10638 10639 10640 10642 10643 10645 10648 10650 10650 10650 10648 10646 10647 10648 10648 10647 10646 10645 10645 10644 10643 10643 10641 10638 10637 10636 10636 10636 10636 10636 10635 10634 10634 10633 10632 10632 10631 10630 10629 10628 10627 10626 10624 10623 10622 10620 10618 10616 10613 10610 10608 10605 10602 10599
10483 10490 10498 10505 10511 10517 10524 10533 10540 10545 10550 10556 10564 10571 10576 10581 10586 10589 10593 10596 10600 10605 10609 10612 10616 10619 10621 10623 10626 10627 10629 10632 10633 10634 10635 10636 10638 10641 10643 10644 10644 10642 10640 10640 10641 10641 10641 10641 10640 10639 10639 10638 10637 10634 10632 10631 10630 10630 10630 10631 10630 10629 10629 10628 10628 10627 10627 10626 10625 10625 10623 10622 10621 10620 10618 10617 10615 10613 10611 10608 10606 10603 10601 10597 10594
10474 10480 10487 10495 10501 10508 10515 10523 10531 10537 10543 10550 10558 10564 10569 10574 10579 10582 10587 10591 10595 10599 10603 10607 10610 10613 10616 10618 10620 10621 10623 10626 10627 10628 10628 10629 10631 10635 10637 10637 10638 10637 10635 10633 10634 10634 10635 10635 10634 10634 10634 10633 10631 10628 10626 10625 10625 10624 10624 10625 10624 10624 10623 10623 10622 10622 10621 10621 10620 10620 10619 10617 10616 10615 10614 10612 10610 10608 10606 10604 10601 10599 10596 10593 10590
10464 10470 10476 10484 10492 10500 10507 10515 10523 10530 10536 10543 10551 10556 10561 10567 10572 10577 10581 10585 10590 10594 10598 10601 10605 10608 10611 10613 10614 10615 10617 10620 10622 10622 10622 10623 10625 10628 10630 10631 10631 10632 10631 10629 10629 10629 10630 10630 10630 10630 10629 10628 10625 10623 10621 10620 10619 10619 10619 10619 10619 10618 10618 10617 10617 10617 10616 10615 10615 10615 10614 10613 10612 10610 10609 10607 10605 10603 10601 10599 10596 10594 10591 10588 10585
10455 10462 10468 10476 10485 10492 10500 10508 10516 10522 10529 10536 10543 10549 10555 10561 10567 10572 10576 10580 10584 10588 10592 10596 10601 10605 10607 10608 10608 10609 10611 10613 10615 10615 10615 10617 10619 10622 10624 10625 10625 10626 10626 10626 10626 10626 10626 10626 10625 10625 10625 10622 10620 10618 10617 10616 10615 10614 10614 10614 10614 10613 10613 10613 10613 10612 10611 10610 10610 10609 10608 10607 10606 10605 10604 10602 10600 10598 10596 10593 10591 10588 10586 10583 10580
10448 10455 10462 10469 10478 10485 10493 10500 10508 10515 10522 10529 10537 10543 10549 10556 10562 10567 10571 10575 10579 10583 10587 10592 10597 10600 10602 10603 10603 10604 10606 10607 10608 10608 10609 10611 10613 10615 10617 10619 10620 10621 10622 10622 10622 10623 10622 10622 10623 10623 10620 10617 10615 10614 10612 10611 10610 10609 10609 10609 10608 10608 10608 10608 10608 10607 10606 10606 10605 10604 10603 10601 10601 10600 10598 10597 10595 10593 10590 10588 10585 10583 10580 10577 10575
10440 10448 10456 10463 10471 10480 10488 10495 10503 10511 10518 10525 10532 10539 10546 10552 10557 10562 10566 10570 10574 10578 10582 10587 10591 10594 10596 10597 10598 10600 10602 10603 10604 10604 10605 10607 10608 10610 10612 10614 10615 10616 10617 10616 10616 10617 10618 10619 10620 10620 10616 10613 10611 10610 10608 10607 10606 10605 10605 10605 10604 10603 10603 10603 10603 10602 10602 10601 10600 10599 10597 10596 10596 10595 10593 10591 10590 10587 10585 10582 10580 10577 10574 10572 10569
10433 10442 10450 10457 10465 10474 10483 10490 10499 10507 10514 10520 10528 10536 10542 10548 10552 10557 10561 10564 10568 10572 10577 10581 10585 10588 10590 10592 10594 10596 10598 10599 10599 10599 10600 10602 10605 10607 10608 10609 10610 10611 10610 10610 10611 10612 10613 10613 10614 10614 10611 10608 10606 10605 10604 10603 10602 10602 10601 10601 10600 10599 10599 10599 10598 10598 10598 10597 10596 10593 10592 10591 10591 10589 10587 10586 10584 10582 10579 10577 10574 10571 10568 10566 10564
10427 10436 10445 10453 10462 10470 10479 10487 10495 10503 10509 10517 10525 10532 10537 10542 10546 10550 10554 10558 10562 10567 10571 10575 10579 10582 10584 10587 10589 10591 10592 10591 10590 10591 10595 10598 10601 10603 10605 10605 10605 10605 10605 10606 10607 10606 10605 10606 10607 10608 10606 10603 10601 10601 10601 10600 10599 10598 10597 10596 10596 10595 10595 10594 10594 10594 10594 10593 10590 10588 10587 10586 10585 10583 10582 10580 10578 10576 10574 10571 10568 10566 10563 10560 10558
10424 10433 10443 10452 10460 10468 10476 10484 10492 10498 10505 10512 10521 10527 10531 10536 10540 10544 10547 10552 10557 10561 10566 10570 10572 10575 10579 10581 10582 10584 10584 10584 10584 10588 10592 10595 10596 10598 10600 10600 10601 10600 10600 10602 10601 10599 10598 10599 10600 10600 10599 10598 10597 10597 10597 10595 10594 10593 10593 10593 10592 10591 10590 10590 10589 10590 10589 10587 10585 10584 10583 10581 10579 10578 10576 10574 10573 10570 10568 10565 10563 10560 10558 10555 10552
10423 10432 10441 10449 10457 10464 10472 10480 10486 10492 10499 10507 10514 10520 10525 10530 10535 10538 10542 10546 10551 10556 10561 10564 10566 10569 10573 10575 10576 10577 10578 10579 10581 10585 10588 10588 10590 10592 10593 10594 10594 10593 10592 10594 10595 10593 10593 10594 10594 10593 10593 10592 10591 10591 10590 10589 10588 10588 10588 10589 10587 10586 10585 10584 10585 10585 10584 10582 10580 10579 10578 10576 10573 10572 10570 10568 10566 10564 10562 10559 10557 10555 10552 10549 10546
10426 10434 10442 10449 10456 10463 10469 10476 10482 10488 10495 10502 10509 10515 10520 10525 10530 10533 10537 10541 10545 10549 10554 10558 10561 10564 10567 10569 10570 10571 10573 10574 10576 10578 10581 10582 10584 10585 10586 10587 10588 10586 10584 10586 10588 10588 10588 10589 10588 10587 10587 10586 10584 10584 10584 10584 10583 10583 10583 10583 10581 10580 10579 10579 10579 10579 10578 10576 10575 10574 10572 10570 10568 10566 10564 10562 10560 10558 10556 10553 10551 10548 10545 10542 10539
10428 10435 10441 10448 10455 10461 10467 10473 10479 10486 10493 10500 10506 10511 10516 10521 10525 10528 10532 10536 10539 10543 10548 10553 10555 10557 10560 10561 10563 10566 10567 10568 10569 10572 10574 10576 10577 10579 10581 10582 10582 10580 10579 10580 10580 10580 10581 10582 10582 10581 10580 10580 10578 10578 10579 10578 10578 10578 10578 10577 10576 10574 10573 10573 10574 10573 10572 10570 10569 10568 10566 10564 10563 10561 10559 10556 10554 10552 10550 10547 10544 10541 10537 10534 10531
10425 10432 10438 10445 10451 10458 10464 10470 10477 10484 10491 10497 10503 10508 10512 10516 10519 10522 10526 10530 10534 10538 10543 10546 10548 10550 10553 10555 10557 10559 10560 10562 10564 10566 10567 10569 10571 10573 10574 10574 10574 10573 10572 10573 10573 10573 10573 10574 10575 10575 10575 10574 10573 10573 10572 10572 10572 10573 10572 10571 10570 10568 10568 10567 10567 10566 10565 10564 10563 10561 10560 10558 10557 10555 10552 10550 10548 10545 10543 10539 10536 10532 10529 10526 10523
10421 10428 10434 10441 10448 10454 10461 10468 10475 10482 10488 10494 10499 10504 10508 10511 10513 10516 10520 10524 10528 10532 10536 10538 10540 10542 10545 10548 10550 10552 10553 10555 10557 10558 10560 10562 10564 10565 10564 10565 10567 10567 10566 10566 10567 10566 10566 10567 10568 10568 10568 10568 10567 10567 10566 10566 10566 10567 10567 10566 10564 10563 10562 10561 10559 10559 10558 10557 10555 10554 10552 10551 10550 10548 10546 10543 10541 10538 10535 10532 10528 10525 10521 10518 10514
10422 10428 10434 10440 10446 10453 10459 10466 10473 10480 10485 10490 10494 10498 10501 10504 10507 10510 10514 10518 10522 10526 10528 10530 10532 10534 10538 10541 10542 10543 10545 10547 10549 10551 10553 10554 10556 10556 10557 10558 10560 10560 10560 10560 10560 10560 10560 10561 10561 10562 10562 10562 10561 10560 10559 10560 10560 10561 10561 10561 10559 10557 10555 10554 10552 10551 10551 10549 10548 10546 10545 10544 10542 10541 10539 10536 10533 10531 10528 10525 10522 10518 10515 10511 10507
10425 10430 10436 10441 10447 10453 10459 10465 10471 10477 10481 10485 10488 10492 10495 10498 10501 10505 10509 10513 10517 10519 10521 10524 10526 10529 10531 10533 10533 10535 10539 10541 10543 10545 10546 10546 10546 10548 10551 10552 10552 10553 10553 10554 10554 10554 10554 10554 10555 10555 10556 10555 10555 10554 10554 10554 10554 10554 10555 10555 10553 10551 10549 10547 10546 10544 10543 10542 10540 10539 10537 10536 10535 10533 10532 10529 10527 10524 10521 10519 10516 10512 10508 10504 10500
10429 10433 10438 10443 10448 10453 10459 10464 10468 10472 10476 10479 10482 10485 10489 10492 10497 10501 10506 10510 10514 10517 10519 10521 10524 10525 10526 10526 10527 10530 10533 10536 10538 10539 10540 10539 10539 10542 10544 10544 10544 10546 10546 10546 10546 10547 10548 10548 10548 10549 10550 10549 10549 10549 10549 10548 10548 10549 10548 10547 10545 10544 10542 10540 10539 10538 10536 10535 10533 10531 10530 10529 10528 10526 10525 10522 10519 10517 10514 10511 10508 10504 10500 10497 10492
10430 10434 10439 10444 10449 10454 10458 10462 10466 10469 10472 10476 10479 10483 10487 10491 10496 10501 10505 10509 10512 10514 10514 10516 10517 10519 10519 10520 10522 10524 10528 10531 10533 10534 10534 10534 10534 10536 10537 10536 10536 10538 10539 10539 10540 10541 10542 10542 10542 10542 10543 10543 10543 10542 10542 10543 10543 10543 10541 10539 10538 10537 10535 10533 10532 10531 10529 10527 10525 10524 10523 10522 10521 10520 10518 10514 10511 10509 10507 10504 10501 10497 10494 10490 10486
10430 10434 10439 10443 10447 10452 10456 10461 10465 10468 10472 10476 10479 10483 10487 10492 10495 10499 10502 10503 10504 10505 10506 10507 10509 10512 10513 10515 10517 10519 10523 10526 10528 10528 10529 10529 10530 10530 10530 10530 10529 10530 10532 10533 10534 10535 10535 10535 10535 10536 10536 10536 10535 10535 10535 10536 10536 10536 10534 10532 10531 10530 10528 10526 10525 10524 10521 10519 10517 10515 10514 10513 10511 10511 10510 10506 10503 10501 10499 10496 10494 10491 10487 10483 10479
10430 10434 10437 10441 10444 10448 10453 10457 10461 10465 10469 10473 10477 10480 10483 10486 10489 10491 10493 10494 10495 10496 10498 10500 10502 10504 10506 10508 10511 10514 10517 10519 10520 10520 10522 10524 10524 10524 10524 10524 10523 10523 10525 10526 10527 10527 10528 10528 10529 10530 10529 10529 10529 10529 10529 10529 10529 10528 10527 10525 10524 10523 10520 10518 10517 10516 10514 10512 10511 10509 10507 10505 10503 10502 10501 10499 10496 10494 10492 10489 10487 10484 10480 10476 10472
10428 10430 10433 10437 10441 10445 10449 10453 10456 10460 10464 10467 10470 10473 10476 10478 10480 10482 10484 10485 10487 10488 10490 10492 10493 10495 10497 10500 10504 10507 10509 10510 10511 10512 10514 10515 10516 10516 10517 10517 10517 10517 10518 10519 10520 10520 10521 10522 10523 10523 10523 10522 10522 10522 10523 10523 10522 10521 10520 10518 10517 10515 10513 10511 10509 10508 10505 10504 10504 10503 10501 10499 10497 10495 10494 10492 10490 10487 10485 10482 10480 10477 10473 10469 10464
10425 10427 10430 10433 10437 10441 10444 10446 10449 10452 10455 10458 10461 10464 10467 10470 10472 10474 10476 10478 10479 10481 10483 10484 10486 10487 10490 10493 10496 10499 10500 10502 10503 10505 10506 10507 10508 10509 10509 10510 10510 10511 10512 10513 10513 10514 10515 10516 10516 10517 10516 10516 10516 10515 10516 10516 10515 10514 10513 10511 10510 10508 10506 10504 10502 10500 10498 10495 10495 10495 10494 10492 10490 10488 10486 10484 10482 10480 10477 10474 10472 10469 10465 10461 10457
10423 10426 10428 10430 10432 10436 10438 10441 10443 10446 10448 10449 10451 10453 10457 10460 10464 10466 10468 10470 10472 10474 10476 10478 10479 10481 10483 10485 10488 10490 10492 10494 10495 10497 10498 10499 10500 10501 10501 10502 10503 10504 10505 10506 10506 10507 10507 10508 10510 10510 10510 10510 10509 10509 10509 10509 10508 10507 10506 10504 10502 10501 10499 10496 10494 10492 10489 10485 10485 10486 10486 10484 10482 10479 10477 10476 10474 10471 10468 10465 10463 10459 10456 10452 10449
10421 10423 10425 10426 10428 10430 10432 10435 10437 10439 10441 10442 10443 10446 10450 10453 10456 10459 10461 10463 10465 10466 10469 10471 10473 10474 10476 10478 10480 10483 10485 10486 10488 10489 10490 10490 10491 10492 10493 10494 10495 10496 10498 10499 10499 10499 10500 10500 10501 10502 10502 10502 10502 10502 10502 10501 10501 10500 10498 10497 10495 10494 10491 10488 10485 10482 10478 10475 10475 10476 10476 10474 10472 10470 10469 10467 10465 10462 10459 10456 10453 10450 10447 10444 10441
10418 10419 10421 10422 10423 10424 10426 10428 10431 10433 10435 10437 10439 10443 10446 10448 10449 10451 10454 10455 10457 10459 10461 10464 10466 10468 10470 10472 10474 10476 10478 10479 10480 10482 10482 10483 10484 10484 10485 10486 10487 10488 10490 10491 10492 10492 10491 10491 10492 10493 10493 10493 10494 10494 10494 10493 10493 10491 10490 10488 10487 10486 10484 10483 10479 10474 10469 10467 10465 10463 10462 10461 10460 10459 10458 10457 10454 10452 10449 10447 10445 10442 10439 10436 10432
10414 10416 10417 10418 10419 10420 10421 10422 10425 10427 10429 10431 10434 10437 10440 10441 10442 10444 10446 10447 10448 10451 10454 10456 10459 10461 10463 10465 10467 10468 10470 10471 10473 10474 10475 10476 10477 10477 10477 10478 10479 10480 10482 10483 10483 10483 10483 10483 10483 10483 10484 10485 10486 10486 10486 10484 10483 10482 10482 10481 10479 10478 10477 10475 10472 10468 10464 10461 10457 10452 10448 10446 10445 10445 10445 10444 10443 10441 10439 10437 10434 10432 10429 10426 10423
10410 10412 10413 10414 10415 10416 10417 10418 10420 10421 10423 10425 10428 10431 10432 10434 10435 10438 10439 10441 10442 10444 10447 10449 10450 10452 10454 10456 10458 10460 10462 10463 10464 10466 10467 10467 10468 10468 10469 10470 10471 10472 10473 10473 10474 10474 10475 10474 10474 10474 10476 10477 10477 10477 10476 10476 10475 10474 10473 10473 10472 10471 10469 10467 10465 10462 10459 10456 10451 10445 10441 10438 10436 10435 10435 10434 10433 10431 10429 10427 10424 10422 10419 10416 10413
10405 10406 10408 10410 10411 10412 10412 10413 10415 10416 10417 10419 10421 10424 10426 10427 10429 10431 10433 10434 10436 10439 10440 10441 10443 10444 10446 10448 10450 10452 10453 10454 10456 10457 10458 10458 10458 10459 10459 10460 10461 10462 10463 10464 10464 10465 10465 10466 10466 10467 10468 10468 10468 10468 10467 10467 10466 10466 10465 10465 10464 10463 10461 10460 10458 10455 10452 10449 10445 10440 10435 10432 10429 10428 10427 10425 10424 10422 10420 10417 10415 10413 10410 10407 10403
10399 10401 10402 10404 10405 10406 10407 10408 10409 10410 10412 10413 10415 10417 10419 10420 10422 10424 10426 10427 10429 10431 10433 10434 10435 10437 10439 10440 10442 10443 10444 10445 10446 10447 10448 10449 10450 10450 10451 10452 10453 10453 10454 10454 10455 10456 10457 10457 10458 10458 10459 10459 10459 10459 10459 10458 10458 10458 10457 10456 10455 10454 10452 10451 10449 10448 10445 10442 10438 10434 10430 10426 10423 10420 10418 10416 10415 10413 10410 10408 10406 10403 10400 10397 10394
10394 10395 10396 10397 10399 10400 10402 10403 10404 10405 10407 10408 10410 10411 10413 10415 10416 10418 10420 10421 10422 10424 10426 10427 10428 10430 10431 10432 10434 10435 10436 10436 10437 10438 10439 10440 10441 10442 10443 10444 10444 10445 10445 10445 10446 10447 10447 10448 10448 10449 10450 10450 10450 10449 10449 10449 10449 10449 10448 10446 10445 10444 10443 10441 10440 10439 10436 10433 10430 10428 10425 10421 10417 10413 10410 10408 10406 10403 10401 10399 10396 10393 10390 10388 10385